Time,TemperatureF,DewpointF,PressureIn,WindDirection,WindDirectionDegrees,WindSpeedMPH,WindSpeedGustMPH,Humidity,HourlyPrecipIn,Conditions,Clouds,dailyrainin,SoftwareType,DateUTC
2013-08-20 00:00:00,86.0,55.2,29.88,NNE,22,0.0,0.0,35,0.00,,SKC,0.00,VWS V14.01,2013-08-20 07:00:00,
2013-08-20 00:05:00,86.0,55.2,29.88,NNE,22,0.0,0.0,35,0.00,,SKC,0.00,VWS V14.01,2013-08-20 07:05:00,
2013-08-20 00:10:00,86.0,56.0,29.88,ESE,112,3.0,3.0,36,0.00,,SKC,0.00,VWS V14.01,2013-08-20 07:10:00,
2013-08-20 00:15:00,86.0,56.0,29.88,ENE,68,0.0,0.0,36,0.00,,SKC,0.00,VWS V14.01,2013-08-20 07:15:00,
2013-08-20 00:20:00,85.0,55.8,29.88,ENE,68,0.0,0.0,37,0.00,,SKC,0.00,VWS V14.01,2013-08-20 07:20:00,
2013-08-20 00:25:00,85.0,55.8,29.88,ENE,68,0.0,0.0,37,0.00,,SKC,0.00,VWS V14.01,2013-08-20 07:25:00,
2013-08-20 00:30:00,85.0,55.8,29.88,NNE,22,1.0,2.0,37,0.00,,SKC,0.00,VWS V14.01,2013-08-20 07:30:00,
2013-08-20 00:35:00,85.0,55.1,29.88,NNE,22,2.0,2.0,36,0.00,,SKC,0.00,VWS V14.01,2013-08-20 07:35:00,
2013-08-20 00:40:00,85.0,55.8,29.88,NNE,22,1.0,1.0,37,0.00,,SKC,0.00,VWS V14.01,2013-08-20 07:40:00,
2013-08-20 00:45:00,85.0,55.1,29.88,North,0,1.0,2.0,36,0.00,,SKC,0.00,VWS V14.01,2013-08-20 07:45:00,
2013-08-20 00:50:00,85.0,55.1,29.88,NNE,22,2.0,3.0,36,0.00,,SKC,0.00,VWS V14.01,2013-08-20 07:50:00,
2013-08-20 00:55:00,86.0,56.0,29.88,NNE,22,0.0,0.0,36,0.00,,SKC,0.00,VWS V14.01,2013-08-20 07:55:00,
2013-08-20 01:00:00,86.0,56.0,29.88,North,0,1.0,1.0,36,0.00,,SKC,0.00,VWS V14.01,2013-08-20 08:00:00,
2013-08-20 01:05:00,85.0,55.1,29.87,NW,315,2.0,3.0,36,0.00,,SKC,0.00,VWS V14.01,2013-08-20 08:05:00,
2013-08-20 01:10:00,85.0,55.8,29.87,NW,315,3.0,3.0,37,0.00,,SKC,0.00,VWS V14.01,2013-08-20 08:10:00,
2013-08-20 01:15:00,85.0,55.8,29.88,NW,315,1.0,1.0,37,0.00,,SKC,0.00,VWS V14.01,2013-08-20 08:15:00,
2013-08-20 01:20:00,85.0,55.8,29.88,NW,315,0.0,0.0,37,0.00,,SKC,0.00,VWS V14.01,2013-08-20 08:20:00,
2013-08-20 01:25:00,85.0,55.8,29.88,NW,315,0.0,0.0,37,0.00,,SKC,0.00,VWS V14.01,2013-08-20 08:25:00,
2013-08-20 01:30:00,85.0,56.6,29.88,NW,315,0.0,0.0,38,0.00,,SKC,0.00,VWS V14.01,2013-08-20 08:30:00,
2013-08-20 01:35:00,85.0,55.8,29.88,NW,315,0.0,0.0,37,0.00,,SKC,0.00,VWS V14.01,2013-08-20 08:35:00,
2013-08-20 01:40:00,85.0,55.8,29.87,NW,315,0.0,0.0,37,0.00,,SKC,0.00,VWS V14.01,2013-08-20 08:40:00,
2013-08-20 01:45:00,85.0,55.8,29.87,NW,315,0.0,0.0,37,0.00,,SKC,0.00,VWS V14.01,2013-08-20 08:45:00,
2013-08-20 01:50:00,85.0,55.8,29.87,NW,315,0.0,0.0,37,0.00,,SKC,0.00,VWS V14.01,2013-08-20 08:50:00,
2013-08-20 01:55:00,85.0,55.8,29.87,NW,315,0.0,0.0,37,0.00,,SKC,0.00,VWS V14.01,2013-08-20 08:55:00,
2013-08-20 02:00:00,85.0,55.8,29.88,NW,315,0.0,0.0,37,0.00,,SKC,0.00,VWS V14.01,2013-08-20 09:00:00,
2013-08-20 02:05:00,85.0,55.8,29.88,NW,315,0.0,0.0,37,0.00,,SKC,0.00,VWS V14.01,2013-08-20 09:05:00,
2013-08-20 02:10:00,85.0,55.8,29.88,NW,315,0.0,0.0,37,0.00,,SKC,0.00,VWS V14.01,2013-08-20 09:10:00,
2013-08-20 02:15:00,85.0,56.6,29.88,NW,315,0.0,0.0,38,0.00,,SKC,0.00,VWS V14.01,2013-08-20 09:15:00,
2013-08-20 02:20:00,85.0,56.6,29.88,NW,315,0.0,0.0,38,0.00,,SKC,0.00,VWS V14.01,2013-08-20 09:20:00,
2013-08-20 02:25:00,85.0,57.3,29.88,WSW,248,1.0,1.0,39,0.00,,SKC,0.00,VWS V14.01,2013-08-20 09:25:00,
2013-08-20 02:30:00,84.0,57.1,29.88,South,180,1.0,1.0,40,0.00,,SKC,0.00,VWS V14.01,2013-08-20 09:30:00,
2013-08-20 02:35:00,84.0,57.1,29.89,South,180,2.0,2.0,40,0.00,,SKC,0.00,VWS V14.01,2013-08-20 09:35:00,
2013-08-20 02:40:00,84.0,57.1,29.88,South,180,1.0,2.0,40,0.00,,SKC,0.00,VWS V14.01,2013-08-20 09:40:00,
2013-08-20 02:45:00,84.0,57.8,29.88,SSW,202,2.0,3.0,41,0.00,,SKC,0.00,VWS V14.01,2013-08-20 09:45:00,
2013-08-20 02:50:00,84.0,57.8,29.88,SSW,202,2.0,2.0,41,0.00,,SKC,0.00,VWS V14.01,2013-08-20 09:50:00,
2013-08-20 02:55:00,84.0,57.8,29.89,SSW,202,0.0,1.0,41,0.00,,SKC,0.00,VWS V14.01,2013-08-20 09:55:00,
2013-08-20 03:00:00,85.0,58.0,29.89,SSW,202,2.0,3.0,40,0.00,,SKC,0.00,VWS V14.01,2013-08-20 10:00:00,
2013-08-20 03:05:00,85.0,57.3,29.89,SSE,158,2.0,2.0,39,0.00,,SKC,0.00,VWS V14.01,2013-08-20 10:05:00,
2013-08-20 03:10:00,85.0,56.6,29.89,SE,135,6.0,6.0,38,0.00,,SKC,0.00,VWS V14.01,2013-08-20 10:10:00,
2013-08-20 03:15:00,85.0,56.6,29.89,South,180,3.0,3.0,38,0.00,,SKC,0.00,VWS V14.01,2013-08-20 10:15:00,
2013-08-20 03:20:00,86.0,56.7,29.89,SSE,158,11.0,11.0,37,0.00,,SKC,0.00,VWS V14.01,2013-08-20 10:20:00,
2013-08-20 03:25:00,87.0,57.6,29.89,SE,135,10.0,12.0,37,0.00,,SKC,0.00,VWS V14.01,2013-08-20 10:25:00,
2013-08-20 03:30:00,87.0,57.6,29.89,SE,135,14.0,20.0,37,0.00,,SKC,0.00,VWS V14.01,2013-08-20 10:30:00,
2013-08-20 03:35:00,86.0,57.5,29.89,ESE,112,16.0,21.0,38,0.00,,SKC,0.00,VWS V14.01,2013-08-20 10:35:00,
2013-08-20 03:40:00,86.0,56.7,29.89,ESE,112,16.0,16.0,37,0.00,,SKC,0.00,VWS V14.01,2013-08-20 10:40:00,
2013-08-20 03:45:00,87.0,57.6,29.89,SSE,158,15.0,15.0,37,0.00,,SKC,0.00,VWS V14.01,2013-08-20 10:45:00,
2013-08-20 03:50:00,86.0,56.7,29.89,SSE,158,12.0,17.0,37,0.00,,SKC,0.00,VWS V14.01,2013-08-20 10:50:00,
2013-08-20 03:55:00,86.0,56.7,29.89,SSE,158,13.0,15.0,37,0.00,,SKC,0.00,VWS V14.01,2013-08-20 10:55:00,
2013-08-20 04:00:00,86.0,56.7,29.89,SE,135,8.0,10.0,37,0.00,,SKC,0.00,VWS V14.01,2013-08-20 11:00:00,
2013-08-20 04:05:00,86.0,56.7,29.89,SSE,158,13.0,13.0,37,0.00,,SKC,0.00,VWS V14.01,2013-08-20 11:05:00,
2013-08-20 04:10:00,86.0,56.7,29.89,SSE,158,11.0,13.0,37,0.00,,SKC,0.00,VWS V14.01,2013-08-20 11:10:00,
2013-08-20 04:15:00,86.0,56.7,29.89,SSE,158,11.0,11.0,37,0.00,,SKC,0.00,VWS V14.01,2013-08-20 11:15:00,
2013-08-20 04:20:00,86.0,56.7,29.89,SSE,158,16.0,16.0,37,0.00,,SKC,0.00,VWS V14.01,2013-08-20 11:20:00,
2013-08-20 04:25:00,86.0,56.7,29.89,SSE,158,6.0,10.0,37,0.00,,SKC,0.00,VWS V14.01,2013-08-20 11:25:00,
2013-08-20 04:30:00,86.0,56.7,29.89,SE,135,8.0,11.0,37,0.00,,SKC,0.00,VWS V14.01,2013-08-20 11:30:00,
2013-08-20 04:35:00,86.0,56.7,29.89,SSE,158,9.0,11.0,37,0.00,,SKC,0.00,VWS V14.01,2013-08-20 11:35:00,
2013-08-20 04:40:00,86.0,56.7,29.89,SSE,158,8.0,11.0,37,0.00,,SKC,0.00,VWS V14.01,2013-08-20 11:40:00,
2013-08-20 04:45:00,86.0,56.7,29.89,SSE,158,11.0,11.0,37,0.00,,SKC,0.00,VWS V14.01,2013-08-20 11:45:00,
2013-08-20 04:50:00,86.0,56.7,29.89,SSE,158,10.0,13.0,37,0.00,,SKC,0.00,VWS V14.01,2013-08-20 11:50:00,
2013-08-20 04:55:00,86.0,56.0,29.89,SE,135,11.0,11.0,36,0.00,,SKC,0.00,VWS V14.01,2013-08-20 11:55:00,
2013-08-20 05:00:00,86.0,56.0,29.89,SSW,202,6.0,6.0,36,0.00,,SKC,0.00,VWS V14.01,2013-08-20 12:00:00,
2013-08-20 05:05:00,86.0,56.0,29.89,SSE,158,7.0,10.0,36,0.00,,SKC,0.00,VWS V14.01,2013-08-20 12:05:00,
2013-08-20 05:10:00,85.0,55.8,29.89,SE,135,8.0,8.0,37,0.00,,SKC,0.00,VWS V14.01,2013-08-20 12:10:00,
2013-08-20 05:15:00,85.0,55.8,29.89,SSE,158,6.0,7.0,37,0.00,,SKC,0.00,VWS V14.01,2013-08-20 12:15:00,
2013-08-20 05:20:00,85.0,55.8,29.89,ESE,112,10.0,13.0,37,0.00,,SKC,0.00,VWS V14.01,2013-08-20 12:20:00,
2013-08-20 05:25:00,85.0,55.8,29.89,South,180,8.0,8.0,37,0.00,,SKC,0.00,VWS V14.01,2013-08-20 12:25:00,
2013-08-20 05:30:00,85.0,55.8,29.89,SSE,158,6.0,8.0,37,0.00,,SKC,0.00,VWS V14.01,2013-08-20 12:30:00,
2013-08-20 05:35:00,85.0,55.8,29.89,SSE,158,3.0,3.0,37,0.00,,SKC,0.00,VWS V14.01,2013-08-20 12:35:00,
2013-08-20 05:40:00,85.0,55.8,29.89,South,180,4.0,5.0,37,0.00,,SKC,0.00,VWS V14.01,2013-08-20 12:40:00,
2013-08-20 05:45:00,85.0,55.8,29.89,WSW,248,3.0,3.0,37,0.00,,SKC,0.00,VWS V14.01,2013-08-20 12:45:00,
2013-08-20 05:50:00,85.0,56.6,29.89,ESE,112,3.0,4.0,38,0.00,,SKC,0.00,VWS V14.01,2013-08-20 12:50:00,
2013-08-20 05:55:00,84.0,55.7,29.89,SSW,202,3.0,3.0,38,0.00,,SKC,0.00,VWS V14.01,2013-08-20 12:55:00,
2013-08-20 06:00:00,84.0,55.7,29.89,SSW,202,3.0,3.0,38,0.00,,SKC,0.00,VWS V14.01,2013-08-20 13:00:00,
2013-08-20 06:05:00,84.0,56.4,29.89,SSW,202,6.0,6.0,39,0.00,,SKC,0.00,VWS V14.01,2013-08-20 13:05:00,
2013-08-20 06:10:00,83.0,55.5,29.89,SSW,202,6.0,6.0,39,0.00,,SKC,0.00,VWS V14.01,2013-08-20 13:10:00,
2013-08-20 06:15:00,83.0,56.2,29.89,South,180,4.0,6.0,40,0.00,,SKC,0.00,VWS V14.01,2013-08-20 13:15:00,
2013-08-20 06:20:00,83.0,56.2,29.89,West,270,3.0,5.0,40,0.00,,SKC,0.00,VWS V14.01,2013-08-20 13:20:00,
2013-08-20 06:25:00,83.0,56.9,29.89,SW,225,3.0,3.0,41,0.00,,SKC,0.00,VWS V14.01,2013-08-20 13:25:00,
2013-08-20 06:30:00,83.0,56.9,29.90,SSW,202,5.0,5.0,41,0.00,,SKC,0.00,VWS V14.01,2013-08-20 13:30:00,
2013-08-20 06:35:00,83.0,57.6,29.89,SSW,202,3.0,4.0,42,0.00,,SKC,0.00,VWS V14.01,2013-08-20 13:35:00,
2013-08-20 06:40:00,82.0,56.7,29.90,SSW,202,2.0,3.0,42,0.00,,SKC,0.00,VWS V14.01,2013-08-20 13:40:00,
2013-08-20 06:45:00,82.0,57.3,29.90,SW,225,3.0,4.0,43,0.00,,SKC,0.00,VWS V14.01,2013-08-20 13:45:00,
2013-08-20 06:50:00,82.0,57.3,29.90,SW,225,5.0,5.0,43,0.00,,SKC,0.00,VWS V14.01,2013-08-20 13:50:00,
2013-08-20 06:55:00,82.0,57.3,29.90,SSW,202,2.0,3.0,43,0.00,,SKC,0.00,VWS V14.01,2013-08-20 13:55:00,
2013-08-20 07:00:00,83.0,58.2,29.90,SW,225,3.0,3.0,43,0.00,,SKC,0.00,VWS V14.01,2013-08-20 14:00:00,
2013-08-20 07:05:00,83.0,58.2,29.90,SSW,202,3.0,4.0,43,0.00,,SKC,0.00,VWS V14.01,2013-08-20 14:05:00,
2013-08-20 07:10:00,83.0,58.2,29.90,SW,225,4.0,4.0,43,0.00,,SKC,0.00,VWS V14.01,2013-08-20 14:10:00,
2013-08-20 07:15:00,83.0,58.2,29.90,SW,225,2.0,3.0,43,0.00,,SKC,0.00,VWS V14.01,2013-08-20 14:15:00,
2013-08-20 07:20:00,83.0,58.2,29.90,SW,225,3.0,3.0,43,0.00,,SKC,0.00,VWS V14.01,2013-08-20 14:20:00,
2013-08-20 07:25:00,83.0,58.2,29.90,SW,225,2.0,2.0,43,0.00,,SKC,0.00,VWS V14.01,2013-08-20 14:25:00,
2013-08-20 07:30:00,84.0,58.5,29.90,SSE,158,3.0,3.0,42,0.00,,SKC,0.00,VWS V14.01,2013-08-20 14:30:00,
2013-08-20 07:35:00,85.0,58.7,29.90,SSE,158,1.0,2.0,41,0.00,,SKC,0.00,VWS V14.01,2013-08-20 14:35:00,
2013-08-20 07:40:00,86.0,58.2,29.90,SE,135,1.0,2.0,39,0.00,,SKC,0.00,VWS V14.01,2013-08-20 14:40:00,
2013-08-20 07:45:00,86.0,58.2,29.90,ESE,112,2.0,3.0,39,0.00,,SKC,0.00,VWS V14.01,2013-08-20 14:45:00,
2013-08-20 07:50:00,86.0,57.5,29.90,ESE,112,3.0,3.0,38,0.00,,SKC,0.00,VWS V14.01,2013-08-20 14:50:00,
2013-08-20 07:55:00,86.0,58.2,29.90,ESE,112,0.0,0.0,39,0.00,,SKC,0.00,VWS V14.01,2013-08-20 14:55:00,
2013-08-20 08:00:00,86.0,57.5,29.91,ESE,112,0.0,0.0,38,0.00,,SKC,0.00,VWS V14.01,2013-08-20 15:00:00,
2013-08-20 08:05:00,87.0,58.3,29.90,ESE,112,0.0,0.0,38,0.00,,SKC,0.00,VWS V14.01,2013-08-20 15:05:00,
2013-08-20 08:10:00,87.0,59.1,29.90,SE,135,0.0,0.0,39,0.00,,SKC,0.00,VWS V14.01,2013-08-20 15:10:00,
2013-08-20 08:15:00,87.0,59.8,29.91,SE,135,0.0,0.0,40,0.00,,SKC,0.00,VWS V14.01,2013-08-20 15:15:00,
2013-08-20 08:20:00,87.0,58.3,29.91,NNE,22,1.0,3.0,38,0.00,,SKC,0.00,VWS V14.01,2013-08-20 15:20:00,
2013-08-20 08:25:00,88.0,58.5,29.91,NE,45,1.0,1.0,37,0.00,,SKC,0.00,VWS V14.01,2013-08-20 15:25:00,
2013-08-20 08:30:00,88.0,58.5,29.91,ENE,68,1.0,2.0,37,0.00,,SKC,0.00,VWS V14.01,2013-08-20 15:30:00,
2013-08-20 08:35:00,89.0,58.6,29.91,ENE,68,2.0,2.0,36,0.00,,SKC,0.00,VWS V14.01,2013-08-20 15:35:00,
2013-08-20 08:40:00,89.0,57.8,29.91,East,90,4.0,4.0,35,0.00,,SKC,0.00,VWS V14.01,2013-08-20 15:40:00,
2013-08-20 08:45:00,89.0,58.6,29.91,NW,315,2.0,3.0,36,0.00,,SKC,0.00,VWS V14.01,2013-08-20 15:45:00,
2013-08-20 08:50:00,89.0,59.4,29.91,NW,315,3.0,3.0,37,0.00,,SKC,0.00,VWS V14.01,2013-08-20 15:50:00,
2013-08-20 08:55:00,89.0,59.4,29.90,West,270,3.0,4.0,37,0.00,,SKC,0.00,VWS V14.01,2013-08-20 15:55:00,
2013-08-20 09:00:00,89.0,59.4,29.90,NW,315,5.0,6.0,37,0.00,,SKC,0.00,VWS V14.01,2013-08-20 16:00:00,
2013-08-20 09:05:00,89.0,58.6,29.91,WNW,292,3.0,5.0,36,0.00,,SKC,0.00,VWS V14.01,2013-08-20 16:05:00,
2013-08-20 09:10:00,89.0,57.8,29.91,WSW,248,4.0,5.0,35,0.00,,SKC,0.00,VWS V14.01,2013-08-20 16:10:00,
2013-08-20 09:15:00,90.0,57.9,29.91,WSW,248,3.0,3.0,34,0.00,,SKC,0.00,VWS V14.01,2013-08-20 16:15:00,
2013-08-20 09:20:00,90.0,57.1,29.91,West,270,5.0,5.0,33,0.00,,SKC,0.00,VWS V14.01,2013-08-20 16:20:00,
2013-08-20 09:25:00,90.0,57.9,29.91,WSW,248,0.0,0.0,34,0.00,,SKC,0.00,VWS V14.01,2013-08-20 16:25:00,
2013-08-20 09:30:00,91.0,58.8,29.91,SW,225,1.0,1.0,34,0.00,,SKC,0.00,VWS V14.01,2013-08-20 16:30:00,
2013-08-20 09:35:00,91.0,58.8,29.91,West,270,5.0,5.0,34,0.00,,SKC,0.00,VWS V14.01,2013-08-20 16:35:00,
2013-08-20 09:40:00,91.0,57.9,29.91,WSW,248,5.0,6.0,33,0.00,,SKC,0.00,VWS V14.01,2013-08-20 16:40:00,
2013-08-20 09:45:00,91.0,57.9,29.91,West,270,5.0,5.0,33,0.00,,SKC,0.00,VWS V14.01,2013-08-20 16:45:00,
2013-08-20 09:50:00,92.0,58.8,29.91,SW,225,3.0,4.0,33,0.00,,SKC,0.00,VWS V14.01,2013-08-20 16:50:00,
2013-08-20 09:55:00,92.0,58.8,29.91,SW,225,2.0,3.0,33,0.00,,SKC,0.00,VWS V14.01,2013-08-20 16:55:00,
2013-08-20 10:00:00,93.0,58.8,29.91,SSW,202,3.0,3.0,32,0.00,,SKC,0.00,VWS V14.01,2013-08-20 17:00:00,
2013-08-20 10:05:00,93.0,58.8,29.90,WSW,248,3.0,5.0,32,0.00,,SKC,0.00,VWS V14.01,2013-08-20 17:05:00,
2013-08-20 10:10:00,92.0,57.9,29.90,WSW,248,4.0,6.0,32,0.00,,SKC,0.00,VWS V14.01,2013-08-20 17:10:00,
2013-08-20 10:15:00,93.0,58.8,29.90,West,270,5.0,6.0,32,0.00,,SKC,0.00,VWS V14.01,2013-08-20 17:15:00,
2013-08-20 10:20:00,93.0,58.8,29.90,West,270,4.0,4.0,32,0.00,,SKC,0.00,VWS V14.01,2013-08-20 17:20:00,
2013-08-20 10:25:00,93.0,59.7,29.90,SW,225,5.0,6.0,33,0.00,,SKC,0.00,VWS V14.01,2013-08-20 17:25:00,
2013-08-20 10:30:00,93.0,58.8,29.90,SW,225,7.0,7.0,32,0.00,,SKC,0.00,VWS V14.01,2013-08-20 17:30:00,
2013-08-20 10:35:00,93.0,58.8,29.90,SW,225,6.0,6.0,32,0.00,,SKC,0.00,VWS V14.01,2013-08-20 17:35:00,
2013-08-20 10:40:00,94.0,58.8,29.90,WSW,248,8.0,8.0,31,0.00,,SKC,0.00,VWS V14.01,2013-08-20 17:40:00,
2013-08-20 10:45:00,95.0,59.7,29.90,SSW,202,5.0,6.0,31,0.00,,SKC,0.00,VWS V14.01,2013-08-20 17:45:00,
2013-08-20 10:50:00,95.0,58.7,29.90,WNW,292,8.0,12.0,30,0.00,,SKC,0.00,VWS V14.01,2013-08-20 17:50:00,
2013-08-20 10:55:00,95.0,58.7,29.90,WNW,292,8.0,9.0,30,0.00,,SKC,0.00,VWS V14.01,2013-08-20 17:55:00,
2013-08-20 11:00:00,95.0,58.7,29.90,WSW,248,8.0,9.0,30,0.00,,SKC,0.00,VWS V14.01,2013-08-20 18:00:00,
2013-08-20 11:05:00,95.0,58.7,29.90,West,270,10.0,10.0,30,0.00,,SKC,0.00,VWS V14.01,2013-08-20 18:05:00,
2013-08-20 11:10:00,95.0,59.7,29.90,West,270,7.0,8.0,31,0.00,,SKC,0.00,VWS V14.01,2013-08-20 18:10:00,
2013-08-20 11:15:00,96.0,59.6,29.90,WNW,292,5.0,5.0,30,0.00,,SKC,0.00,VWS V14.01,2013-08-20 18:15:00,
2013-08-20 11:20:00,96.0,58.7,29.89,NNW,338,10.0,10.0,29,0.00,,SKC,0.00,VWS V14.01,2013-08-20 18:20:00,
2013-08-20 11:25:00,96.0,58.7,29.89,West,270,6.0,8.0,29,0.00,,SKC,0.00,VWS V14.01,2013-08-20 18:25:00,
2013-08-20 11:30:00,97.0,59.5,29.89,West,270,5.0,6.0,29,0.00,,SKC,0.00,VWS V14.01,2013-08-20 18:30:00,
2013-08-20 11:35:00,97.0,59.5,29.89,NNW,338,8.0,8.0,29,0.00,,SKC,0.00,VWS V14.01,2013-08-20 18:35:00,
2013-08-20 11:40:00,96.0,58.7,29.89,SW,225,7.0,8.0,29,0.00,,SKC,0.00,VWS V14.01,2013-08-20 18:40:00,
2013-08-20 11:45:00,97.0,59.5,29.89,SW,225,3.0,3.0,29,0.00,,SKC,0.00,VWS V14.01,2013-08-20 18:45:00,
2013-08-20 11:50:00,97.0,58.5,29.89,WNW,292,3.0,4.0,28,0.00,,SKC,0.00,VWS V14.01,2013-08-20 18:50:00,
2013-08-20 11:55:00,98.0,58.3,29.88,WNW,292,8.0,10.0,27,0.00,,SKC,0.00,VWS V14.01,2013-08-20 18:55:00,
2013-08-20 12:00:00,98.0,58.3,29.88,NW,315,4.0,5.0,27,0.00,,SKC,0.00,VWS V14.01,2013-08-20 19:00:00,
2013-08-20 12:05:00,99.0,58.2,29.88,WSW,248,7.0,7.0,26,0.00,,SKC,0.00,VWS V14.01,2013-08-20 19:05:00,
2013-08-20 12:10:00,98.0,57.3,29.88,ENE,68,2.0,2.0,26,0.00,,SKC,0.00,VWS V14.01,2013-08-20 19:10:00,
2013-08-20 12:15:00,99.0,59.2,29.88,NW,315,4.0,4.0,27,0.00,,SKC,0.00,VWS V14.01,2013-08-20 19:15:00,
2013-08-20 12:20:00,99.0,58.2,29.87,West,270,5.0,5.0,26,0.00,,SKC,0.00,VWS V14.01,2013-08-20 19:20:00,
2013-08-20 12:25:00,100.0,57.9,29.87,NE,45,0.0,1.0,25,0.00,,SKC,0.00,VWS V14.01,2013-08-20 19:25:00,
2013-08-20 12:30:00,100.0,56.8,29.87,WNW,292,8.0,9.0,24,0.00,,SKC,0.00,VWS V14.01,2013-08-20 19:30:00,
2013-08-20 12:35:00,100.0,57.9,29.86,SW,225,6.0,7.0,25,0.00,,SKC,0.00,VWS V14.01,2013-08-20 19:35:00,
2013-08-20 12:40:00,99.0,57.1,29.86,West,270,13.0,13.0,25,0.00,,SKC,0.00,VWS V14.01,2013-08-20 19:40:00,
2013-08-20 12:45:00,100.0,57.9,29.86,WSW,248,3.0,4.0,25,0.00,,SKC,0.00,VWS V14.01,2013-08-20 19:45:00,
2013-08-20 12:50:00,101.0,57.6,29.86,WSW,248,4.0,4.0,24,0.00,,SKC,0.00,VWS V14.01,2013-08-20 19:50:00,
2013-08-20 12:55:00,101.0,57.6,29.86,WSW,248,5.0,6.0,24,0.00,,SKC,0.00,VWS V14.01,2013-08-20 19:55:00,
2013-08-20 13:00:00,102.0,58.4,29.85,West,270,1.0,1.0,24,0.00,,SKC,0.00,VWS V14.01,2013-08-20 20:00:00,
2013-08-20 13:05:00,102.0,57.2,29.85,West,270,11.0,11.0,23,0.00,,SKC,0.00,VWS V14.01,2013-08-20 20:05:00,
2013-08-20 13:10:00,101.0,57.6,29.84,WSW,248,14.0,16.0,24,0.00,,SKC,0.00,VWS V14.01,2013-08-20 20:10:00,
2013-08-20 13:15:00,101.0,56.4,29.84,WSW,248,6.0,11.0,23,0.00,,SKC,0.00,VWS V14.01,2013-08-20 20:15:00,
2013-08-20 13:20:00,101.0,56.4,29.84,WNW,292,3.0,5.0,23,0.00,,SKC,0.00,VWS V14.01,2013-08-20 20:20:00,
2013-08-20 13:25:00,102.0,57.2,29.84,WSW,248,4.0,6.0,23,0.00,,SKC,0.00,VWS V14.01,2013-08-20 20:25:00,
2013-08-20 13:30:00,102.0,57.2,29.84,WSW,248,4.0,5.0,23,0.00,,SKC,0.00,VWS V14.01,2013-08-20 20:30:00,
2013-08-20 13:35:00,101.0,56.4,29.84,SW,225,10.0,11.0,23,0.00,,SKC,0.00,VWS V14.01,2013-08-20 20:35:00,
2013-08-20 13:40:00,102.0,57.2,29.83,SSW,202,5.0,5.0,23,0.00,,SKC,0.00,VWS V14.01,2013-08-20 20:40:00,
2013-08-20 13:45:00,101.0,55.2,29.83,WSW,248,6.0,6.0,22,0.00,,SKC,0.00,VWS V14.01,2013-08-20 20:45:00,
2013-08-20 13:50:00,102.0,57.2,29.83,WNW,292,8.0,8.0,23,0.00,,SKC,0.00,VWS V14.01,2013-08-20 20:50:00,
2013-08-20 13:55:00,102.0,56.0,29.83,NW,315,5.0,7.0,22,0.00,,SKC,0.00,VWS V14.01,2013-08-20 20:55:00,
2013-08-20 14:00:00,103.0,58.1,29.83,ENE,68,7.0,8.0,23,0.00,,SKC,0.00,VWS V14.01,2013-08-20 21:00:00,
2013-08-20 14:05:00,101.0,57.6,29.83,ENE,68,11.0,14.0,24,0.00,,SKC,0.00,VWS V14.01,2013-08-20 21:05:00,
2013-08-20 14:10:00,101.0,57.6,29.83,ENE,68,17.0,17.0,24,0.00,,SKC,0.00,VWS V14.01,2013-08-20 21:10:00,
2013-08-20 14:15:00,93.0,61.3,29.84,ENE,68,14.0,16.0,35,0.00,,SKC,0.00,VWS V14.01,2013-08-20 21:15:00,
2013-08-20 14:20:00,91.0,57.1,29.84,ENE,68,19.0,22.0,32,0.00,,SKC,0.00,VWS V14.01,2013-08-20 21:20:00,
2013-08-20 14:25:00,87.0,61.2,29.84,ESE,112,13.0,19.0,42,0.00,,SKC,0.00,VWS V14.01,2013-08-20 21:25:00,
2013-08-20 14:30:00,80.0,59.1,29.85,SE,135,17.0,27.0,49,0.12,,SKC,0.12,VWS V14.01,2013-08-20 21:30:00,
2013-08-20 14:35:00,80.0,59.7,29.84,NE,45,9.0,13.0,50,0.19,,SKC,0.19,VWS V14.01,2013-08-20 21:35:00,
2013-08-20 14:40:00,81.0,62.3,29.83,NE,45,3.0,3.0,53,0.23,,SKC,0.23,VWS V14.01,2013-08-20 21:40:00,
2013-08-20 14:45:00,80.0,65.8,29.83,ENE,68,6.0,6.0,62,0.25,,SKC,0.25,VWS V14.01,2013-08-20 21:45:00,
2013-08-20 14:50:00,81.0,64.8,29.82,ESE,112,11.0,11.0,58,0.27,,SKC,0.27,VWS V14.01,2013-08-20 21:50:00,
2013-08-20 14:55:00,80.0,66.3,29.82,NE,45,5.0,6.0,63,0.27,,SKC,0.27,VWS V14.01,2013-08-20 21:55:00,
2013-08-20 15:00:00,80.0,66.3,29.82,ENE,68,6.0,7.0,63,0.27,,SKC,0.27,VWS V14.01,2013-08-20 22:00:00,
2013-08-20 15:05:00,81.0,67.2,29.82,ENE,68,4.0,5.0,63,0.27,,SKC,0.27,VWS V14.01,2013-08-20 22:05:00,
2013-08-20 15:10:00,82.0,68.6,29.82,NNE,22,3.0,4.0,64,0.27,,SKC,0.27,VWS V14.01,2013-08-20 22:10:00,
2013-08-20 15:15:00,83.0,66.7,29.82,NE,45,2.0,4.0,58,0.27,,SKC,0.27,VWS V14.01,2013-08-20 22:15:00,
2013-08-20 15:20:00,84.0,67.1,29.83,NNE,22,3.0,4.0,57,0.27,,SKC,0.27,VWS V14.01,2013-08-20 22:20:00,
2013-08-20 15:25:00,84.0,65.6,29.83,NE,45,2.0,2.0,54,0.27,,SKC,0.27,VWS V14.01,2013-08-20 22:25:00,
2013-08-20 15:30:00,85.0,65.4,29.83,NE,45,1.0,2.0,52,0.18,,SKC,0.27,VWS V14.01,2013-08-20 22:30:00,
2013-08-20 15:35:00,86.0,65.8,29.83,NNE,22,2.0,3.0,51,0.10,,SKC,0.27,VWS V14.01,2013-08-20 22:35:00,
2013-08-20 15:40:00,86.0,65.2,29.83,ENE,68,5.0,6.0,50,0.05,,SKC,0.27,VWS V14.01,2013-08-20 22:40:00,
2013-08-20 15:45:00,86.0,65.2,29.83,NE,45,4.0,4.0,50,0.02,,SKC,0.27,VWS V14.01,2013-08-20 22:45:00,
2013-08-20 15:50:00,86.0,62.8,29.83,NE,45,2.0,2.0,46,0.00,,SKC,0.27,VWS V14.01,2013-08-20 22:50:00,
2013-08-20 15:55:00,85.0,67.0,29.83,WSW,248,6.0,6.0,55,0.00,,SKC,0.27,VWS V14.01,2013-08-20 22:55:00,
2013-08-20 16:00:00,85.0,62.5,29.83,SW,225,11.0,13.0,47,0.00,,SKC,0.27,VWS V14.01,2013-08-20 23:00:00,
2013-08-20 16:05:00,85.0,61.3,29.84,SSW,202,5.0,5.0,45,0.00,,SKC,0.27,VWS V14.01,2013-08-20 23:05:00,
2013-08-20 16:10:00,86.0,60.9,29.84,SSE,158,10.0,11.0,43,0.00,,SKC,0.27,VWS V14.01,2013-08-20 23:10:00,
2013-08-20 16:15:00,86.0,62.2,29.84,SW,225,10.0,11.0,45,0.00,,SKC,0.27,VWS V14.01,2013-08-20 23:15:00,
2013-08-20 16:20:00,85.0,62.5,29.84,SW,225,8.0,10.0,47,0.00,,SKC,0.27,VWS V14.01,2013-08-20 23:20:00,
2013-08-20 16:25:00,85.0,62.5,29.84,SSW,202,8.0,10.0,47,0.00,,SKC,0.27,VWS V14.01,2013-08-20 23:25:00,
2013-08-20 16:30:00,85.0,62.5,29.84,SSW,202,8.0,11.0,47,0.00,,SKC,0.27,VWS V14.01,2013-08-20 23:30:00,
2013-08-20 16:35:00,85.0,61.3,29.84,SW,225,7.0,11.0,45,0.00,,SKC,0.27,VWS V14.01,2013-08-20 23:35:00,
2013-08-20 16:40:00,85.0,61.3,29.84,SW,225,8.0,10.0,45,0.00,,SKC,0.27,VWS V14.01,2013-08-20 23:40:00,
2013-08-20 16:45:00,85.0,60.7,29.84,SW,225,9.0,9.0,44,0.00,,SKC,0.27,VWS V14.01,2013-08-20 23:45:00,
2013-08-20 16:50:00,85.0,61.3,29.84,SSW,202,5.0,6.0,45,0.00,,SKC,0.27,VWS V14.01,2013-08-20 23:50:00,
2013-08-20 16:55:00,85.0,60.7,29.84,SSW,202,6.0,6.0,44,0.00,,SKC,0.27,VWS V14.01,2013-08-20 23:55:00,
2013-08-20 17:00:00,85.0,61.3,29.84,SSE,158,3.0,5.0,45,0.00,,SKC,0.27,VWS V14.01,2013-08-21 00:00:00,
2013-08-20 17:05:00,85.0,61.9,29.84,SE,135,2.0,4.0,46,0.00,,SKC,0.27,VWS V14.01,2013-08-21 00:05:00,
2013-08-20 17:10:00,85.0,61.9,29.85,SE,135,6.0,6.0,46,0.00,,SKC,0.27,VWS V14.01,2013-08-21 00:10:00,
2013-08-20 17:15:00,85.0,61.3,29.85,SSE,158,5.0,7.0,45,0.00,,SKC,0.27,VWS V14.01,2013-08-21 00:15:00,
2013-08-20 17:20:00,84.0,62.2,29.85,SSW,202,8.0,10.0,48,0.00,,SKC,0.27,VWS V14.01,2013-08-21 00:20:00,
2013-08-20 17:25:00,84.0,62.8,29.86,SSE,158,3.0,4.0,49,0.00,,SKC,0.27,VWS V14.01,2013-08-21 00:25:00,
2013-08-20 17:30:00,84.0,62.2,29.86,West,270,5.0,6.0,48,0.00,,SKC,0.27,VWS V14.01,2013-08-21 00:30:00,
2013-08-20 17:35:00,84.0,62.2,29.85,SSW,202,3.0,4.0,48,0.00,,SKC,0.27,VWS V14.01,2013-08-21 00:35:00,
2013-08-20 17:40:00,84.0,61.6,29.85,South,180,4.0,8.0,47,0.00,,SKC,0.27,VWS V14.01,2013-08-21 00:40:00,
2013-08-20 17:45:00,84.0,61.0,29.85,SSW,202,3.0,6.0,46,0.00,,SKC,0.27,VWS V14.01,2013-08-21 00:45:00,
2013-08-20 17:50:00,84.0,60.4,29.86,SSE,158,5.0,5.0,45,0.00,,SKC,0.27,VWS V14.01,2013-08-21 00:50:00,
2013-08-20 17:55:00,84.0,61.0,29.86,SW,225,1.0,2.0,46,0.00,,SKC,0.27,VWS V14.01,2013-08-21 00:55:00,
2013-08-20 18:00:00,84.0,61.0,29.86,SW,225,3.0,4.0,46,0.00,,SKC,0.27,VWS V14.01,2013-08-21 01:00:00,
2013-08-20 18:05:00,84.0,61.6,29.85,SW,225,6.0,7.0,47,0.00,,SKC,0.27,VWS V14.01,2013-08-21 01:05:00,
2013-08-20 18:10:00,84.0,60.4,29.86,SW,225,8.0,9.0,45,0.00,,SKC,0.27,VWS V14.01,2013-08-21 01:10:00,
2013-08-20 18:15:00,84.0,62.2,29.86,WSW,248,7.0,8.0,48,0.00,,SKC,0.27,VWS V14.01,2013-08-21 01:15:00,
2013-08-20 18:20:00,84.0,62.8,29.86,SE,135,6.0,11.0,49,0.00,,SKC,0.27,VWS V14.01,2013-08-21 01:20:00,
2013-08-20 18:25:00,84.0,62.2,29.86,SSE,158,6.0,7.0,48,0.00,,SKC,0.27,VWS V14.01,2013-08-21 01:25:00,
2013-08-20 18:30:00,84.0,62.8,29.86,SSE,158,10.0,12.0,49,0.00,,SKC,0.27,VWS V14.01,2013-08-21 01:30:00,
2013-08-20 18:35:00,84.0,62.8,29.87,SSE,158,2.0,4.0,49,0.00,,SKC,0.27,VWS V14.01,2013-08-21 01:35:00,
2013-08-20 18:40:00,83.0,62.5,29.88,West,270,6.0,8.0,50,0.00,,SKC,0.27,VWS V14.01,2013-08-21 01:40:00,
2013-08-20 18:45:00,83.0,63.0,29.88,WSW,248,4.0,6.0,51,0.00,,SKC,0.27,VWS V14.01,2013-08-21 01:45:00,
2013-08-20 18:50:00,83.0,63.0,29.88,WSW,248,3.0,3.0,51,0.00,,SKC,0.27,VWS V14.01,2013-08-21 01:50:00,
2013-08-20 18:55:00,83.0,63.0,29.89,SW,225,8.0,10.0,51,0.00,,SKC,0.27,VWS V14.01,2013-08-21 01:55:00,
2013-08-20 19:00:00,83.0,61.3,29.89,SW,225,6.0,6.0,48,0.00,,SKC,0.27,VWS V14.01,2013-08-21 02:00:00,
2013-08-20 19:05:00,83.0,60.1,29.89,SW,225,11.0,12.0,46,0.00,,SKC,0.27,VWS V14.01,2013-08-21 02:05:00,
2013-08-20 19:10:00,83.0,60.7,29.89,WSW,248,7.0,10.0,47,0.00,,SKC,0.27,VWS V14.01,2013-08-21 02:10:00,
2013-08-20 19:15:00,81.0,61.7,29.89,WNW,292,11.0,13.0,52,0.00,,SKC,0.27,VWS V14.01,2013-08-21 02:15:00,
2013-08-20 19:20:00,80.0,61.9,29.90,West,270,7.0,9.0,54,0.00,,SKC,0.27,VWS V14.01,2013-08-21 02:20:00,
2013-08-20 19:25:00,79.0,62.0,29.89,SW,225,10.0,10.0,56,0.00,,SKC,0.27,VWS V14.01,2013-08-21 02:25:00,
2013-08-20 19:30:00,79.0,62.5,29.88,West,270,11.0,12.0,57,0.00,,SKC,0.27,VWS V14.01,2013-08-21 02:30:00,
2013-08-20 19:35:00,79.0,63.5,29.89,WNW,292,11.0,11.0,59,0.00,,SKC,0.27,VWS V14.01,2013-08-21 02:35:00,
2013-08-20 19:40:00,79.0,63.0,29.89,West,270,8.0,8.0,58,0.00,,SKC,0.27,VWS V14.01,2013-08-21 02:40:00,
2013-08-20 19:45:00,80.0,61.3,29.89,SW,225,6.0,6.0,53,0.00,,SKC,0.27,VWS V14.01,2013-08-21 02:45:00,
2013-08-20 19:50:00,80.0,60.8,29.89,WSW,248,9.0,10.0,52,0.00,,SKC,0.27,VWS V14.01,2013-08-21 02:50:00,
2013-08-20 19:55:00,80.0,60.3,29.90,West,270,9.0,10.0,51,0.00,,SKC,0.27,VWS V14.01,2013-08-21 02:55:00,
2013-08-20 20:00:00,80.0,60.8,29.91,WSW,248,3.0,5.0,52,0.00,,SKC,0.27,VWS V14.01,2013-08-21 03:00:00,
2013-08-20 20:05:00,80.0,60.8,29.91,SSE,158,2.0,2.0,52,0.00,,SKC,0.27,VWS V14.01,2013-08-21 03:05:00,
2013-08-20 20:10:00,80.0,61.3,29.91,WSW,248,0.0,0.0,53,0.00,,SKC,0.27,VWS V14.01,2013-08-21 03:10:00,
2013-08-20 20:15:00,80.0,61.9,29.91,SE,135,2.0,2.0,54,0.00,,SKC,0.27,VWS V14.01,2013-08-21 03:15:00,
2013-08-20 20:20:00,80.0,61.9,29.91,SE,135,3.0,3.0,54,0.00,,SKC,0.27,VWS V14.01,2013-08-21 03:20:00,
2013-08-20 20:25:00,80.0,61.9,29.92,ENE,68,2.0,2.0,54,0.00,,SKC,0.27,VWS V14.01,2013-08-21 03:25:00,
2013-08-20 20:30:00,80.0,62.4,29.92,NNW,338,1.0,2.0,55,0.00,,SKC,0.27,VWS V14.01,2013-08-21 03:30:00,
2013-08-20 20:35:00,80.0,62.9,29.92,NNW,338,2.0,3.0,56,0.00,,SKC,0.27,VWS V14.01,2013-08-21 03:35:00,
2013-08-20 20:40:00,80.0,62.4,29.92,NNW,338,3.0,4.0,55,0.00,,SKC,0.27,VWS V14.01,2013-08-21 03:40:00,
2013-08-20 20:45:00,80.0,61.9,29.92,East,90,3.0,4.0,54,0.00,,SKC,0.27,VWS V14.01,2013-08-21 03:45:00,
2013-08-20 20:50:00,80.0,62.9,29.93,SSE,158,5.0,5.0,56,0.00,,SKC,0.27,VWS V14.01,2013-08-21 03:50:00,
2013-08-20 20:55:00,80.0,62.4,29.93,SE,135,9.0,10.0,55,0.00,,SKC,0.27,VWS V14.01,2013-08-21 03:55:00,
2013-08-20 21:00:00,82.0,59.8,29.93,SE,135,18.0,22.0,47,0.00,,SKC,0.27,VWS V14.01,2013-08-21 04:00:00,
2013-08-20 21:01:00,82.0,59.8,29.93,SE,135,19.0,19.0,47,0.00,,SKC,0.27,VWS V14.01,2013-08-21 04:01:00,
2013-08-20 21:02:00,82.0,59.2,29.93,ESE,112,15.0,18.0,46,0.00,,SKC,0.27,VWS V14.01,2013-08-21 04:02:00,
2013-08-20 21:03:00,83.0,60.1,29.93,SE,135,10.0,10.0,46,0.00,,SKC,0.27,VWS V14.01,2013-08-21 04:03:00,
2013-08-20 21:04:00,83.0,60.1,29.93,SE,135,13.0,13.0,46,0.00,,SKC,0.27,VWS V14.01,2013-08-21 04:04:00,
2013-08-20 21:09:00,83.0,58.9,29.93,ESE,112,8.0,10.0,44,0.00,,SKC,0.27,VWS V14.01,2013-08-21 04:09:00,
2013-08-20 21:10:00,83.0,58.2,29.93,ESE,112,6.0,7.0,43,0.00,,SKC,0.27,VWS V14.01,2013-08-21 04:10:00,
2013-08-20 21:15:00,83.0,58.2,29.93,SSE,158,9.0,12.0,43,0.00,,SKC,0.27,VWS V14.01,2013-08-21 04:15:00,
2013-08-20 21:20:00,83.0,58.2,29.92,SE,135,9.0,10.0,43,0.00,,SKC,0.27,VWS V14.01,2013-08-21 04:20:00,
2013-08-20 21:25:00,83.0,58.9,29.92,SSE,158,7.0,8.0,44,0.00,,SKC,0.27,VWS V14.01,2013-08-21 04:25:00,
2013-08-20 21:30:00,83.0,59.5,29.93,SSE,158,6.0,8.0,45,0.00,,SKC,0.27,VWS V14.01,2013-08-21 04:30:00,
2013-08-20 21:35:00,83.0,58.9,29.93,SE,135,5.0,6.0,44,0.00,,SKC,0.27,VWS V14.01,2013-08-21 04:35:00,
2013-08-20 21:40:00,83.0,58.2,29.93,ESE,112,13.0,13.0,43,0.00,,SKC,0.27,VWS V14.01,2013-08-21 04:40:00,
2013-08-20 21:45:00,83.0,58.2,29.93,SSE,158,8.0,10.0,43,0.00,,SKC,0.27,VWS V14.01,2013-08-21 04:45:00,
2013-08-20 21:50:00,83.0,58.2,29.94,ESE,112,9.0,16.0,43,0.00,,SKC,0.27,VWS V14.01,2013-08-21 04:50:00,
2013-08-20 21:56:00,83.0,58.9,29.94,SSE,158,2.0,3.0,44,0.00,,SKC,0.27,VWS V14.01,2013-08-21 04:56:00,
2013-08-20 22:01:00,83.0,58.9,29.94,SE,135,10.0,12.0,44,0.00,,SKC,0.27,VWS V14.01,2013-08-21 05:01:00,
2013-08-20 22:06:00,83.0,59.5,29.93,ENE,68,5.0,9.0,45,0.00,,SKC,0.27,VWS V14.01,2013-08-21 05:06:00,
2013-08-20 22:11:00,83.0,58.9,29.94,ESE,112,8.0,11.0,44,0.00,,SKC,0.27,VWS V14.01,2013-08-21 05:11:00,
2013-08-20 22:16:00,83.0,59.5,29.94,SE,135,8.0,13.0,45,0.00,,SKC,0.27,VWS V14.01,2013-08-21 05:16:00,
2013-08-20 22:21:00,83.0,58.9,29.94,ESE,112,5.0,6.0,44,0.00,,SKC,0.27,VWS V14.01,2013-08-21 05:21:00,
2013-08-20 22:26:00,83.0,58.2,29.94,SSE,158,14.0,19.0,43,0.00,,SKC,0.27,VWS V14.01,2013-08-21 05:26:00,
2013-08-20 22:31:00,83.0,58.9,29.94,ESE,112,13.0,16.0,44,0.00,,SKC,0.27,VWS V14.01,2013-08-21 05:31:00,
2013-08-20 22:36:00,83.0,58.9,29.94,East,90,6.0,8.0,44,0.00,,SKC,0.27,VWS V14.01,2013-08-21 05:36:00,
2013-08-20 22:41:00,82.0,58.0,29.94,SE,135,15.0,16.0,44,0.00,,SKC,0.27,VWS V14.01,2013-08-21 05:41:00,
2013-08-20 22:46:00,83.0,58.2,29.94,SE,135,14.0,14.0,43,0.00,,SKC,0.27,VWS V14.01,2013-08-21 05:46:00,
2013-08-20 22:51:00,83.0,58.2,29.94,ENE,68,9.0,11.0,43,0.00,,SKC,0.27,VWS V14.01,2013-08-21 05:51:00,
2013-08-20 22:56:00,83.0,58.2,29.94,SSE,158,8.0,8.0,43,0.00,,SKC,0.27,VWS V14.01,2013-08-21 05:56:00,
2013-08-20 23:01:00,82.0,57.3,29.94,SE,135,13.0,13.0,43,0.00,,SKC,0.27,VWS V14.01,2013-08-21 06:01:00,
2013-08-20 23:06:00,83.0,57.6,29.94,ESE,112,5.0,6.0,42,0.00,,SKC,0.27,VWS V14.01,2013-08-21 06:06:00,
2013-08-20 23:11:00,83.0,57.6,29.93,ESE,112,6.0,7.0,42,0.00,,SKC,0.27,VWS V14.01,2013-08-21 06:11:00,
2013-08-20 23:16:00,82.0,56.0,29.93,SE,135,11.0,12.0,41,0.00,,SKC,0.27,VWS V14.01,2013-08-21 06:16:00,
2013-08-20 23:21:00,83.0,56.9,29.93,ESE,112,6.0,8.0,41,0.00,,SKC,0.27,VWS V14.01,2013-08-21 06:21:00,
2013-08-20 23:26:00,83.0,57.6,29.93,ESE,112,4.0,5.0,42,0.00,,SKC,0.27,VWS V14.01,2013-08-21 06:26:00,
2013-08-20 23:31:00,82.0,56.7,29.92,ESE,112,5.0,5.0,42,0.00,,SKC,0.27,VWS V14.01,2013-08-21 06:31:00,
2013-08-20 23:36:00,82.0,56.7,29.92,SE,135,1.0,2.0,42,0.00,,SKC,0.27,VWS V14.01,2013-08-21 06:36:00,
2013-08-20 23:41:00,82.0,57.3,29.92,South,180,0.0,0.0,43,0.00,,SKC,0.27,VWS V14.01,2013-08-21 06:41:00,
2013-08-20 23:46:00,82.0,57.3,29.92,SSW,202,2.0,2.0,43,0.00,,SKC,0.27,VWS V14.01,2013-08-21 06:46:00,
2013-08-20 23:51:00,82.0,58.0,29.92,NW,315,3.0,3.0,44,0.00,,SKC,0.27,VWS V14.01,2013-08-21 06:51:00,
2013-08-20 23:56:00,81.0,57.1,29.92,WNW,292,2.0,3.0,44,0.00,,SKC,0.27,VWS V14.01,2013-08-21 06:56:00,